(221383) = 2002 CL260 = 2005 YP10

Discovered at Kitt Peak on 2005-12-21 by Spacewatch.

Orbit

Orbit type: Main Belt

Note: WebGL enabled browser required.

epoch2023-09-13.0
epoch JD2460200.5
perihelion date2019-06-08.23684
perihelion JD2458642.73684
argument of perihelion (°)291.71351
ascending node (°)119.86554
inclination (°)1.70087
eccentricity0.0658090
perihelion distance (AU)2.5874537
Tisserand w.r.t. Jupiter3.3
ΔV w.r.t. Earth (km/sec)10.1
semimajor axis (AU)2.7697267
mean anomaly (°)333.08103
mean daily motion (°/day)0.21382010
aphelion distance (AU)2.952
period (years)4.61
P-vector [x]0.62107927
P-vector [y]0.72959816
P-vector [z]0.28626396
Q-vector [x]-0.78332497
Q-vector [y]0.56586120
Q-vector [z]0.25729963
absolute magnitude17.16
phase slope0.15
uncertainty0
referenceMPEC 2023-W29
observations used205
oppositions15
arc length (days)8443
first opposition used2000
last opposition used2023
residual rms (arc-secs)0.78
perturbers coarse indicatorM-v
perturbers precise indicator003Ek
first observation date used2000-10-06.0
last observation date used2023-11-18.0
computer nameMPCLINUX
JD of orbit computation2456966.920711
perihelion JD uncertainty (days)1.8091E-04
argument of perihelion uncertainty (°)1.6195E-04
ascending node uncertainty (°)1.5733E-04
inclination uncertainty (°)4.1379E-06
eccentricity uncertainty 4.2214E-08
perihelion distance uncertainty (AU)1.1882E-07
Minimum Orbit Intersection Distances (in AU)
for orbit epoch: 2460200.5, reference: E2023-W29
Mercury2.26976
Venus1.8649
Earth1.59759
Mars1.04943
Jupiter2.28114
Saturn6.41408
Uranus15.5921
Neptune27.2293

Observations

212 total observations over interval: 2000 10 06.45949 – 2023 11 18.252063
These data are available for download (format description).

Date (UT) J2000 RA J2000 Dec Magn Location Ref
2000 10 06.45949 02 30 17.08 +12 00 36.1 21.5 V 691 – Steward Observatory, Kitt Peak-Spacewatch MPS 167120
2000 10 06.47747 02 30 16.39 +12 00 32.1 21.3 V 691 – Steward Observatory, Kitt Peak-Spacewatch MPS 167120
2000 10 06.49516 02 30 15.65 +12 00 27.9 21.3 V 691 – Steward Observatory, Kitt Peak-Spacewatch MPS 167120
2000 11 02.28480 02 08 50.95 +10 07 01.5 20.7 V 691 – Steward Observatory, Kitt Peak-Spacewatch MPS 167120
2000 11 02.30598 02 08 49.82 +10 06 55.9 20.7 V 691 – Steward Observatory, Kitt Peak-Spacewatch MPS 167120
2000 11 02.32772 02 08 48.66 +10 06 50.5 20.8 V 691 – Steward Observatory, Kitt Peak-Spacewatch MPS 167120
2002 02 07.26508 10 01 04.20 +13 17 36.4 21.4   644 – Palomar Mountain/NEAT MPS 54761
2002 02 07.33954 10 01 00.31 +13 17 59.7 21.3   644 – Palomar Mountain/NEAT MPS 54761
2002 02 07.40448 10 00 56.94 +13 18 20.0 20.7   644 – Palomar Mountain/NEAT MPS 54761
2002 02 08.22033 10 00 15.88 +13 22 32.7 20.3 R 695 – Kitt Peak MPS 54761
2002 02 08.31382 10 00 10.95 +13 23 01.9   695 – Kitt Peak MPS 54761
2002 03 05.13614 09 39 32.08 +15 21 35.2 21.8 V 291 – LPL/Spacewatch II MPS 167120
2002 03 05.15686 09 39 31.16 +15 21 40.4 21.9 V 291 – LPL/Spacewatch II MPS 167120
2002 03 05.17813 09 39 30.22 +15 21 45.5 21.8 V 291 – LPL/Spacewatch II MPS 167120
2004 08 12.39845 22 06 26.85 -12 53 40.2 20.6 R 568 – Maunakea MPS 286922
2004 08 12.42868 22 06 25.36 -12 53 49.4 20.8 R 568 – Maunakea MPS 286922
2004 08 12.46321 22 06 23.65 -12 53 59.8 20.7 R 568 – Maunakea MPS 286922
2004 08 20.25483 22 00 02.36 -13 33 19.5 20.6 V 691 – Steward Observatory, Kitt Peak-Spacewatch MPS 167120
2004 08 20.29790 22 00 00.12 -13 33 32.8 20.7 V 691 – Steward Observatory, Kitt Peak-Spacewatch MPS 167120
2004 08 20.32501 21 59 58.73 -13 33 41.0 20.5 V 691 – Steward Observatory, Kitt Peak-Spacewatch MPS 167120
2005 11 30.26537 05 34 57.91 +21 31 05.9 20.7 V 691 – Steward Observatory, Kitt Peak-Spacewatch MPS 167120
2005 11 30.28273 05 34 56.99 +21 31 05.9 20.9 V 691 – Steward Observatory, Kitt Peak-Spacewatch MPS 167120
2005 11 30.30010 05 34 55.99 +21 31 05.7 21.0 V 691 – Steward Observatory, Kitt Peak-Spacewatch MPS 167120
2005 12 21.14993 05 14 50.39 +21 24 24.0 20.6 V 691 – Steward Observatory, Kitt Peak-Spacewatch MPS 156685
2005 12 21.16537 05 14 49.47 +21 24 23.8 20.5 V 691 – Steward Observatory, Kitt Peak-Spacewatch MPS 156685
2005 12 21.18082 05 14 48.60 +21 24 23.6 20.5 V 691 – Steward Observatory, Kitt Peak-Spacewatch MPS 156685
2005 12 25.12994 05 11 10.18 +21 23 07.1 21.0 V 691 – Steward Observatory, Kitt Peak-Spacewatch MPS 156685
2005 12 25.14525 05 11 09.32 +21 23 06.4 20.7 V 691 – Steward Observatory, Kitt Peak-Spacewatch MPS 156685
2005 12 25.16056 05 11 08.50 +21 23 06.2 21.1 V 691 – Steward Observatory, Kitt Peak-Spacewatch MPS 156685
2005 12 26.28247 05 10 08.54 +21 22 45.9 20.6 V G96 – Mt. Lemmon Survey MPS 156685
2005 12 26.28844 05 10 08.22 +21 22 46.1 19.9 V G96 – Mt. Lemmon Survey MPS 156685
2005 12 26.29441 05 10 07.86 +21 22 45.6 20.8 V G96 – Mt. Lemmon Survey MPS 156685
2005 12 26.30054 05 10 07.57 +21 22 45.8 20.4 V G96 – Mt. Lemmon Survey MPS 156685
2006 01 05.08269 05 02 28.40 +21 20 54.5 21.2 V 691 – Steward Observatory, Kitt Peak-Spacewatch MPS 167120
2006 01 05.09294 05 02 27.97 +21 20 54.4 21.2 V 691 – Steward Observatory, Kitt Peak-Spacewatch MPS 167120
2006 01 05.10660 05 02 27.40 +21 20 54.9 21.5 V 691 – Steward Observatory, Kitt Peak-Spacewatch MPS 167120
2006 01 22.16759 04 54 56.95 +21 25 09.1 21.3 V G96 – Mt. Lemmon Survey MPS 167120
2006 01 22.17521 04 54 56.84 +21 25 09.1 21.2 V G96 – Mt. Lemmon Survey MPS 167120
2006 01 22.18284 04 54 56.73 +21 25 09.5 21.4 V G96 – Mt. Lemmon Survey MPS 167120
2006 01 22.19045 04 54 56.66 +21 25 09.9 21.3 V G96 – Mt. Lemmon Survey MPS 167120
2006 02 02.31310 04 54 39.00 +21 34 28.7 21.6 I 568 – Maunakea MPS 177076
2006 02 02.35088 04 54 39.25 +21 34 31.1 21.6 I 568 – Maunakea MPS 177076
2006 02 02.38711 04 54 39.50 +21 34 33.1 21.7 I 568 – Maunakea MPS 177076
2009 09 15.23361 00 56 20.00 +03 22 15.2 21.6 V 691 – Steward Observatory, Kitt Peak-Spacewatch MPS 295028
2009 09 15.25122 00 56 19.31 +03 22 10.7 20.8 V 691 – Steward Observatory, Kitt Peak-Spacewatch MPS 295028
2009 09 15.26882 00 56 18.61 +03 22 05.4 20.8 V 691 – Steward Observatory, Kitt Peak-Spacewatch MPS 295028
2009 09 28.17291 00 46 54.56 +02 15 20.3 20.6 V 691 – Steward Observatory, Kitt Peak-Spacewatch MPS 296955
2009 09 28.19053 00 46 53.63 +02 15 14.0 20.7 V 691 – Steward Observatory, Kitt Peak-Spacewatch MPS 296955
2009 09 28.20814 00 46 52.83 +02 15 08.4 20.7 V 691 – Steward Observatory, Kitt Peak-Spacewatch MPS 296955
2009 10 18.27790 00 31 01.77 +00 31 58.4 20.7 V G96 – Mt. Lemmon Survey MPS 300518
2009 10 18.28714 00 31 01.34 +00 31 55.8 20.7 V G96 – Mt. Lemmon Survey MPS 300518
2009 10 18.29654 00 31 00.91 +00 31 53.4 21.1 V G96 – Mt. Lemmon Survey MPS 300518
2009 10 18.30587 00 31 00.51 +00 31 50.8 20.6 V G96 – Mt. Lemmon Survey MPS 300518
2011 01 23.37597 08 26 31.95 +19 22 05.1 20.4 V G96 – Mt. Lemmon Survey MPS 368390
2011 01 23.38413 08 26 31.48 +19 22 07.1 20.4 V G96 – Mt. Lemmon Survey MPS 368390
2011 01 23.39218 08 26 31.02 +19 22 09.0 20.3 V G96 – Mt. Lemmon Survey MPS 368390
2011 01 23.40026 08 26 30.51 +19 22 10.8 20.5 V G96 – Mt. Lemmon Survey MPS 368390
2011 01 30.46905 08 19 54.537 +19 48 59.62 20.8 w F51 – Pan-STARRS 1, Haleakala MPS 379565
2011 01 30.48429 08 19 53.665 +19 49 02.98 20.9 w F51 – Pan-STARRS 1, Haleakala MPS 379565
2011 01 30.50059 08 19 52.735 +19 49 06.52 20.8 w F51 – Pan-STARRS 1, Haleakala MPS 379565
2011 01 30.51568 08 19 51.867 +19 49 09.71 20.8 w F51 – Pan-STARRS 1, Haleakala MPS 379565
2011 02 10.16418 08 10 40.94 +20 24 47.4 20.8 V G96 – Mt. Lemmon Survey MPS 371283
2011 02 10.17115 08 10 40.65 +20 24 48.9 21.1 V G96 – Mt. Lemmon Survey MPS 371283
2011 02 10.17815 08 10 40.26 +20 24 49.8 21.0 V G96 – Mt. Lemmon Survey MPS 371283
2011 02 10.18521 08 10 39.93 +20 24 50.9 21.4 V G96 – Mt. Lemmon Survey MPS 371283
2012 04 27.43132 14 23 08.726 -11 30 58.38 21.1 w F51 – Pan-STARRS 1, Haleakala MPS 423555
2012 04 27.44629 14 23 07.940 -11 30 54.74 20.9 w F51 – Pan-STARRS 1, Haleakala MPS 423555
2012 04 27.46128 14 23 07.160 -11 30 50.91 21.0 w F51 – Pan-STARRS 1, Haleakala MPS 423555
2012 04 27.47627 14 23 06.364 -11 30 47.19 20.9 w F51 – Pan-STARRS 1, Haleakala MPS 423555
2012 05 21.34753 14 04 52.055 -10 04 25.93 21.5 w F51 – Pan-STARRS 1, Haleakala MPS 425836
2012 05 21.34818 14 04 52.019 -10 04 25.57 21.7 w F51 – Pan-STARRS 1, Haleakala MPS 425836
2012 05 21.36203 14 04 51.498 -10 04 23.34 21.5 w F51 – Pan-STARRS 1, Haleakala MPS 425836
2012 05 21.36269 14 04 51.465 -10 04 23.37 21.4 w F51 – Pan-STARRS 1, Haleakala MPS 425836
2012 05 21.37653 14 04 50.939 -10 04 21.18 21.5 w F51 – Pan-STARRS 1, Haleakala MPS 425836
2012 05 21.37720 14 04 50.915 -10 04 20.85 21.6 w F51 – Pan-STARRS 1, Haleakala MPS 425836
2012 05 21.39107 14 04 50.373 -10 04 18.76 21.3 w F51 – Pan-STARRS 1, Haleakala MPS 425836
2012 05 21.39173 14 04 50.354 -10 04 18.57 21.4 w F51 – Pan-STARRS 1, Haleakala MPS 425836
2013 08 02.39942 20 32 24.230 -19 11 30.34 20.7 w F51 – Pan-STARRS 1, Haleakala MPS 473549
2013 08 02.41305 20 32 23.495 -19 11 33.39 20.7 w F51 – Pan-STARRS 1, Haleakala MPS 473549
2013 08 02.42671 20 32 22.748 -19 11 36.50 20.8 w F51 – Pan-STARRS 1, Haleakala MPS 473549
2013 08 02.44037 20 32 22.002 -19 11 39.47 20.7 w F51 – Pan-STARRS 1, Haleakala MPS 473549
2014 10 18.37191 04 00 31.28 +18 08 05.7 20.8 V G96 – Mt. Lemmon Survey MPS 541845
2014 10 18.38275 04 00 31.00 +18 08 04.5 20.8 V G96 – Mt. Lemmon Survey MPS 541845
2014 10 18.38818 04 00 30.83 +18 08 03.9 20.6 V G96 – Mt. Lemmon Survey MPS 541845
2014 10 25.58410 03 56 41.341 +17 54 09.03 20.9 w F51 – Pan-STARRS 1, Haleakala MPS 543814
2014 10 25.59600 03 56 40.861 +17 54 07.37 20.8 w F51 – Pan-STARRS 1, Haleakala MPS 543814
2014 10 25.60788 03 56 40.402 +17 54 05.90 20.8 w F51 – Pan-STARRS 1, Haleakala MPS 543814
2014 10 25.61975 03 56 39.936 +17 54 04.27 20.8 w F51 – Pan-STARRS 1, Haleakala MPS 543814
2014 11 17.26371 03 38 07.30 +16 54 18.2 19.9 V G96 – Mt. Lemmon Survey MPS 547145
